User: anonymous   Login
Location: Dos Palmas
(32.4468°N, 116.8732°W)
Time: 08:40:08
(UTC+00:00)
Language:

ATLAS CENTAUR R/B - Orbit

View from above orbital plane
View from above orbital plane
View from above satellite
View from above satellite

Ground track
Ground track

The orbit data is extracted from the following two-line orbital elements,

1 38770U 12048N   21266.78780047 0.00001500  00000-0  94735-4 0    09
2 38770  64.6555 138.7388 0160928 340.1540  19.8460 14.98621965    08
Epoch (UTC): 23 September 2021 18:54:25
Eccentricity: 0.0160928
inclination: 64.6555°
perigee height: 459 km
apogee height: 683 km
right ascension of ascending node: 138.7388°
argument of perigee: 340.1540°
revolutions per day: 14.98621965
mean anomaly at epoch: 19.8460°
orbit number at epoch: 0

The dashed part of the orbit path shows where the satellite is in the earth's shadow,  

DLR